Location: Capannuccia
(43.7000°N, 11.3000°E)
Time: 07:52:41
(UTC+00:00)

STARLINK-2734 - Pass Details

Date: 30 July 2021
Orbit: 546 x 548 km, 53.1° (Epoch: 23 September)

Event Time Altitude Azimuth Distance (km) Brightness Sun altitude
Rises 20:29:26 0° 296° (WNW) 2,723 8.5 -16.6°
Reaches altitude 10° 20:31:58 10° 283° (WNW) 1,824 7.1 -16.9°
Maximum altitude 20:35:22 25° 228° (SW) 1,134 5.2 -17.3°
Enters shadow 20:36:50 20° 196° (SSW) 1,291 5.2 -17.5°
